BAW676 EGLL-LTFM

Flight info

Callsign BAW676
Flight time 3h 31m
Altitude 35000
Route DET L6 DVR UL9 KONAN DCT KOK UL607 FERDI DCT MATUG DCT AMASI DCT BOMBI DCT TENLO DCT DEXIT DCT BEGLA DCT TEGRI DCT NEKUL DCT LAMIT DCT RASUB DCT BULEN DCT BUVAK DCT RIXEN
Aircraft A320/M-SDE3FGHIRWY/LB1

Departure

Time 2026-05-07 19:50
Airport London Heathrow Airport (EGLL)

Arrival

Time 2026-05-07 23:21
Airport İstanbul Airport (LTFM)
Time Latitude Longitude Altitude Speed Heading
2026-05-07 18:40 51.46997 -0.44692 97 ft 0 kts 270°
2026-05-07 19:21 51.46997 -0.44678 97 ft 2 kts 270°
2026-05-07 19:21 51.46996 -0.44650 97 ft 3 kts 277°
2026-05-07 19:22 51.46994 -0.44631 97 ft 1 kts 277°
2026-05-07 19:22 51.46993 -0.44619 97 ft 0 kts 277°
2026-05-07 19:23 51.46992 -0.44603 97 ft 3 kts 278°
2026-05-07 19:23 51.46991 -0.44593 97 ft 0 kts 284°
2026-05-07 19:24 51.46990 -0.44587 97 ft 2 kts 284°
2026-05-07 19:24 51.46986 -0.44562 97 ft 3 kts 285°
2026-05-07 19:24 51.46979 -0.44532 97 ft 3 kts 296°
2026-05-07 19:24 51.46977 -0.44527 97 ft 0 kts 296°
2026-05-07 19:28 51.46978 -0.44527 97 ft 0 kts 296°
2026-05-07 19:30 51.46978 -0.44535 97 ft 2 kts 250°
2026-05-07 19:30 51.46969 -0.44540 97 ft 0 kts 190°
2026-05-07 19:32 51.46968 -0.44540 97 ft 0 kts 190°
2026-05-07 19:33 51.46960 -0.44542 97 ft 2 kts 191°
2026-05-07 19:33 51.46928 -0.44551 97 ft 5 kts 187°
2026-05-07 19:33 51.46886 -0.44557 97 ft 7 kts 181°
2026-05-07 19:34 51.46834 -0.44557 97 ft 8 kts 180°
2026-05-07 19:34 51.46772 -0.44557 97 ft 9 kts 180°
2026-05-07 19:34 51.46721 -0.44557 97 ft 5 kts 179°
2026-05-07 19:34 51.46680 -0.44568 97 ft 7 kts 210°
2026-05-07 19:35 51.46662 -0.44642 97 ft 8 kts 262°
2026-05-07 19:35 51.46659 -0.44734 97 ft 9 kts 269°
2026-05-07 19:35 51.46659 -0.44843 97 ft 11 kts 270°
2026-05-07 19:35 51.46659 -0.44974 97 ft 12 kts 270°
2026-05-07 19:36 51.46658 -0.45121 97 ft 14 kts 269°
2026-05-07 19:36 51.46658 -0.45280 97 ft 11 kts 270°
2026-05-07 19:36 51.46657 -0.45413 97 ft 13 kts 270°
2026-05-07 19:36 51.46657 -0.45566 97 ft 15 kts 269°
2026-05-07 19:37 51.46656 -0.45739 97 ft 16 kts 270°
2026-05-07 19:37 51.46655 -0.45931 97 ft 18 kts 270°
2026-05-07 19:37 51.46655 -0.46135 97 ft 19 kts 269°
2026-05-07 19:37 51.46654 -0.46301 97 ft 14 kts 269°
2026-05-07 19:38 51.46653 -0.46465 97 ft 16 kts 269°
2026-05-07 19:38 51.46653 -0.46629 97 ft 14 kts 270°
2026-05-07 19:38 51.46653 -0.46789 97 ft 15 kts 270°
2026-05-07 19:38 51.46652 -0.46950 97 ft 15 kts 270°
2026-05-07 19:39 51.46652 -0.47129 97 ft 17 kts 269°
2026-05-07 19:39 51.46651 -0.47293 97 ft 14 kts 270°
2026-05-07 19:39 51.46650 -0.47439 97 ft 9 kts 270°
2026-05-07 19:39 51.46650 -0.47525 97 ft 5 kts 270°
2026-05-07 19:40 51.46650 -0.47593 97 ft 7 kts 270°
2026-05-07 19:40 51.46650 -0.47682 97 ft 9 kts 270°
2026-05-07 19:40 51.46650 -0.47792 97 ft 11 kts 270°
2026-05-07 19:40 51.46649 -0.47917 97 ft 12 kts 269°
2026-05-07 19:41 51.46649 -0.48024 97 ft 7 kts 270°
2026-05-07 19:41 51.46649 -0.48053 97 ft 1 kts 270°
2026-05-07 19:41 51.46649 -0.48076 97 ft 3 kts 270°
2026-05-07 19:41 51.46649 -0.48121 97 ft 5 kts 270°
2026-05-07 19:42 51.46648 -0.48187 97 ft 7 kts 270°
2026-05-07 19:42 51.46648 -0.48275 97 ft 9 kts 269°
2026-05-07 19:42 51.46648 -0.48328 97 ft 5 kts 269°
2026-05-07 19:42 51.46647 -0.48383 97 ft 4 kts 269°
2026-05-07 19:43 51.46647 -0.48435 97 ft 6 kts 269°
2026-05-07 19:43 51.46647 -0.48507 97 ft 7 kts 270°
2026-05-07 19:43 51.46647 -0.48590 97 ft 7 kts 270°
2026-05-07 19:43 51.46647 -0.48661 97 ft 6 kts 270°
2026-05-07 19:44 51.46642 -0.48725 97 ft 6 kts 241°
2026-05-07 19:44 51.46626 -0.48751 97 ft 0 kts 213°
2026-05-07 19:44 51.46623 -0.48752 97 ft 0 kts 199°
2026-05-07 19:46 51.46623 -0.48753 97 ft 0 kts 199°
2026-05-07 19:47 51.46622 -0.48753 97 ft 1 kts 199°
2026-05-07 19:47 51.46609 -0.48760 97 ft 3 kts 199°
2026-05-07 19:47 51.46584 -0.48775 97 ft 5 kts 199°
2026-05-07 19:48 51.46545 -0.48786 97 ft 7 kts 179°
2026-05-07 19:48 51.46497 -0.48758 97 ft 8 kts 137°
2026-05-07 19:48 51.46482 -0.48665 97 ft 10 kts 101°
2026-05-07 19:48 51.46474 -0.48549 97 ft 11 kts 91°
2026-05-07 19:49 51.46473 -0.48406 97 ft 15 kts 90°
2026-05-07 19:49 51.46475 -0.48059 97 ft 60 kts 89°
2026-05-07 19:49 51.46480 -0.46980 98 ft 131 kts 88°
2026-05-07 19:49 51.46483 -0.45228 256 ft 169 kts 89°
2026-05-07 19:50 51.46486 -0.43336 953 ft 171 kts 88°
2026-05-07 19:50 51.46443 -0.41422 1726 ft 173 kts 98°
2026-05-07 19:50 51.46095 -0.39742 2147 ft 187 kts 118°
2026-05-07 19:50 51.45290 -0.38054 2501 ft 198 kts 137°
2026-05-07 19:51 51.44250 -0.36532 2830 ft 211 kts 127°
2026-05-07 19:51 51.43554 -0.34382 3140 ft 226 kts 107°
2026-05-07 19:51 51.43215 -0.32150 3497 ft 238 kts 100°
2026-05-07 19:51 51.42924 -0.29426 3930 ft 253 kts 100°
2026-05-07 19:52 51.42565 -0.26616 4509 ft 261 kts 103°
2026-05-07 19:52 51.42202 -0.24108 5130 ft 263 kts 103°
2026-05-07 19:52 51.41785 -0.21196 5727 ft 266 kts 103°
2026-05-07 19:52 51.41390 -0.18314 5977 ft 264 kts 103°
2026-05-07 19:53 51.41005 -0.15431 6004 ft 266 kts 103°
2026-05-07 19:53 51.40609 -0.12540 6005 ft 266 kts 104°
2026-05-07 19:53 51.40337 -0.10614 6011 ft 268 kts 104°
2026-05-07 19:53 51.39794 -0.06714 6051 ft 269 kts 104°
2026-05-07 19:54 51.39389 -0.03770 6342 ft 270 kts 103°
2026-05-07 19:54 51.38989 -0.00849 6948 ft 274 kts 104°
2026-05-07 19:54 51.38569 0.02172 7621 ft 277 kts 104°
2026-05-07 19:54 51.38152 0.05166 8252 ft 281 kts 104°
2026-05-07 19:55 51.37725 0.08234 8878 ft 284 kts 104°
2026-05-07 19:55 51.37293 0.11340 9485 ft 288 kts 104°
2026-05-07 19:55 51.36850 0.14497 10087 ft 291 kts 104°
2026-05-07 19:55 51.36398 0.17694 10592 ft 298 kts 104°
2026-05-07 19:56 51.35933 0.20968 10897 ft 312 kts 104°
2026-05-07 19:56 51.35443 0.24428 11165 ft 326 kts 104°
2026-05-07 19:56 51.35105 0.26817 11327 ft 335 kts 104°
2026-05-07 19:56 51.34754 0.29299 11537 ft 342 kts 104°
2026-05-07 19:58 51.31924 0.49149 14229 ft 358 kts 104°
2026-05-07 19:58 51.31366 0.53024 14702 ft 361 kts 104°
2026-05-07 19:58 51.30792 0.56998 15171 ft 364 kts 104°
2026-05-07 19:58 51.30187 0.60919 15624 ft 367 kts 107°
2026-05-07 19:59 51.29544 0.64902 16081 ft 370 kts 104°
2026-05-07 19:59 51.29067 0.68907 16520 ft 374 kts 101°
2026-05-07 19:59 51.28648 0.73079 16954 ft 377 kts 100°
2026-05-07 19:59 51.28229 0.77223 17377 ft 380 kts 101°
2026-05-07 20:00 51.27768 0.81369 17805 ft 382 kts 102°
2026-05-07 20:00 51.27261 0.85589 18222 ft 385 kts 102°
2026-05-07 20:00 51.26741 0.89786 18624 ft 388 kts 102°
2026-05-07 20:00 51.26229 0.93964 19015 ft 390 kts 102°
2026-05-07 20:01 51.25709 0.98291 19417 ft 393 kts 102°
2026-05-07 20:01 51.25200 1.02594 19804 ft 395 kts 102°
2026-05-07 20:01 51.24686 1.06921 20184 ft 398 kts 102°
2026-05-07 20:01 51.24161 1.11293 20555 ft 401 kts 102°
2026-05-07 20:02 51.23637 1.15607 20900 ft 403 kts 102°
2026-05-07 20:02 51.23097 1.20030 21257 ft 406 kts 102°
2026-05-07 20:02 51.22554 1.24476 21610 ft 408 kts 102°
2026-05-07 20:02 51.22010 1.28920 21950 ft 410 kts 102°
2026-05-07 20:03 51.21460 1.33414 22279 ft 413 kts 102°
2026-05-07 20:03 51.20911 1.37928 22598 ft 415 kts 102°
2026-05-07 20:03 51.20368 1.42457 22914 ft 418 kts 102°
2026-05-07 20:03 51.19824 1.47011 23225 ft 420 kts 102°
2026-05-07 20:04 51.19270 1.51606 23529 ft 422 kts 102°
2026-05-07 20:04 51.18718 1.56131 23822 ft 424 kts 102°
2026-05-07 20:04 51.18148 1.60760 24116 ft 426 kts 102°
2026-05-07 20:04 51.17575 1.65422 24405 ft 428 kts 102°
2026-05-07 20:05 51.17003 1.70075 24687 ft 430 kts 102°
2026-05-07 20:05 51.16424 1.74777 24968 ft 432 kts 102°
2026-05-07 20:05 51.15850 1.79425 25236 ft 433 kts 102°
2026-05-07 20:05 51.15253 1.84218 25506 ft 435 kts 102°
2026-05-07 20:06 51.14660 1.88935 25748 ft 438 kts 102°
2026-05-07 20:06 51.14067 1.93673 25993 ft 440 kts 102°
2026-05-07 20:06 51.13462 1.98501 26254 ft 441 kts 102°
2026-05-07 20:06 51.12858 2.03304 26508 ft 443 kts 102°
2026-05-07 20:07 51.12255 2.08084 26755 ft 444 kts 103°
2026-05-07 20:07 51.11639 2.12937 26996 ft 446 kts 103°
2026-05-07 20:07 51.11019 2.17798 27236 ft 448 kts 103°
2026-05-07 20:07 51.10404 2.22599 27466 ft 449 kts 103°
2026-05-07 20:08 51.09778 2.27482 27698 ft 451 kts 103°
2026-05-07 20:08 51.09146 2.32387 27904 ft 453 kts 103°
2026-05-07 20:08 51.08511 2.37308 28125 ft 454 kts 103°
2026-05-07 20:08 51.07872 2.42237 28349 ft 456 kts 103°
2026-05-07 20:09 51.07234 2.47132 28563 ft 457 kts 103°
2026-05-07 20:09 51.06581 2.52117 28776 ft 459 kts 103°
2026-05-07 20:09 51.05937 2.57038 28980 ft 460 kts 103°
2026-05-07 20:10 51.04621 2.67050 29401 ft 463 kts 103°
2026-05-07 20:10 51.03958 2.72058 29602 ft 464 kts 103°
2026-05-07 20:10 51.03293 2.77057 29797 ft 466 kts 103°
2026-05-07 20:10 51.02616 2.82131 30021 ft 467 kts 103°
2026-05-07 20:11 51.01941 2.87167 30300 ft 465 kts 103°
2026-05-07 20:11 51.01270 2.92174 30573 ft 465 kts 103°
2026-05-07 20:11 51.00586 2.97258 30818 ft 464 kts 103°
2026-05-07 20:11 50.99911 3.02221 31088 ft 463 kts 103°
2026-05-07 20:12 50.99234 3.07210 31318 ft 463 kts 103°
2026-05-07 20:12 50.98556 3.12219 31535 ft 463 kts 103°
2026-05-07 20:12 50.97876 3.17194 31766 ft 463 kts 103°
2026-05-07 20:12 50.97190 3.22202 31964 ft 463 kts 103°
2026-05-07 20:13 50.96506 3.27184 32186 ft 463 kts 104°
2026-05-07 20:13 50.95817 3.32161 32396 ft 462 kts 104°
2026-05-07 20:13 50.95131 3.37125 32641 ft 461 kts 104°
2026-05-07 20:13 50.94443 3.42106 32842 ft 461 kts 104°
2026-05-07 20:14 50.93745 3.47074 32991 ft 461 kts 104°
2026-05-07 20:14 50.93049 3.52006 33183 ft 461 kts 104°
2026-05-07 20:14 50.92348 3.56987 33373 ft 461 kts 104°
2026-05-07 20:14 50.91657 3.61889 33549 ft 460 kts 104°
2026-05-07 20:15 50.90956 3.66917 33680 ft 461 kts 104°
2026-05-07 20:15 50.90260 3.71847 33846 ft 461 kts 104°
2026-05-07 20:15 50.89548 3.76829 34012 ft 461 kts 104°
2026-05-07 20:15 50.88851 3.81709 34147 ft 461 kts 104°
2026-05-07 20:16 50.88137 3.86668 34361 ft 459 kts 104°
2026-05-07 20:16 50.87420 3.91641 34507 ft 459 kts 104°
2026-05-07 20:16 50.86718 3.96521 34633 ft 459 kts 104°
2026-05-07 20:16 50.86010 4.01446 34759 ft 459 kts 104°
2026-05-07 20:17 50.85291 4.06424 34876 ft 459 kts 104°
2026-05-07 20:17 50.84577 4.11337 34995 ft 459 kts 104°
2026-05-07 20:17 50.83864 4.16206 35091 ft 459 kts 104°
2026-05-07 20:18 50.82415 4.26070 35095 ft 459 kts 104°
2026-05-07 20:18 50.80964 4.35886 35091 ft 458 kts 105°
2026-05-07 20:19 50.79514 4.45677 35090 ft 459 kts 105°
2026-05-07 20:19 50.78045 4.55521 35089 ft 459 kts 105°
2026-05-07 20:20 50.76561 4.65376 35089 ft 459 kts 105°
2026-05-07 20:20 50.75074 4.75200 35089 ft 459 kts 105°
2026-05-07 20:21 50.73592 4.84949 35088 ft 459 kts 105°
2026-05-07 20:21 50.72102 4.94656 35068 ft 453 kts 105°
2026-05-07 20:22 50.70612 5.04346 35039 ft 450 kts 105°
2026-05-07 20:22 50.69113 5.14004 35071 ft 456 kts 105°
2026-05-07 20:23 50.67597 5.23709 35083 ft 462 kts 105°
2026-05-07 20:23 50.66056 5.33534 35087 ft 462 kts 105°
2026-05-07 20:24 50.64503 5.43370 35088 ft 462 kts 105°
2026-05-07 20:24 50.62946 5.53191 35088 ft 462 kts 105°
2026-05-07 20:25 50.61386 5.62954 35088 ft 461 kts 106°
2026-05-07 20:25 50.59815 5.72733 35089 ft 461 kts 106°
2026-05-07 20:26 50.58763 5.79241 35088 ft 460 kts 106°
2026-05-07 20:26 50.57710 5.85737 35086 ft 457 kts 106°
2026-05-07 20:27 50.55103 6.01739 35035 ft 452 kts 106°
2026-05-07 20:27 50.53785 6.09768 35037 ft 451 kts 106°
2026-05-07 20:28 50.52478 6.17664 35040 ft 453 kts 106°
2026-05-07 20:28 50.50607 6.28930 35036 ft 458 kts 106°
2026-05-07 20:29 50.48702 6.40325 35043 ft 464 kts 106°
2026-05-07 20:29 50.47048 6.50154 35082 ft 467 kts 106°
2026-05-07 20:30 50.45386 6.59974 35132 ft 468 kts 106°
2026-05-07 20:30 50.44012 6.68071 35105 ft 459 kts 106°
2026-05-07 20:31 50.43450 6.71361 35101 ft 460 kts 106°
2026-05-07 20:31 50.40680 6.87502 35088 ft 459 kts 107°
2026-05-07 20:32 50.38739 6.98699 35087 ft 459 kts 107°
2026-05-07 20:32 50.37346 7.06703 35087 ft 455 kts 106°
2026-05-07 20:33 50.35390 7.17945 35087 ft 456 kts 106°
2026-05-07 20:33 50.33703 7.27527 35089 ft 458 kts 106°
2026-05-07 20:34 50.32289 7.35518 35089 ft 459 kts 106°
2026-05-07 20:34 50.30588 7.45109 35089 ft 459 kts 106°
2026-05-07 20:35 50.28583 7.56341 35087 ft 459 kts 107°
2026-05-07 20:35 50.26856 7.65968 35080 ft 460 kts 107°
2026-05-07 20:36 50.25112 7.75603 35096 ft 460 kts 107°
2026-05-07 20:36 50.23366 7.85228 35132 ft 459 kts 107°
2026-05-07 20:37 50.21629 7.94761 35107 ft 460 kts 107°
2026-05-07 20:37 50.19846 8.04447 35076 ft 461 kts 107°
2026-05-07 20:38 50.18074 8.14085 35093 ft 460 kts 107°
2026-05-07 20:38 50.16313 8.23594 35115 ft 460 kts 107°
2026-05-07 20:39 50.14524 8.33192 35086 ft 461 kts 107°
2026-05-07 20:39 50.12728 8.42792 35044 ft 463 kts 107°
2026-05-07 20:40 50.11207 8.50880 35046 ft 463 kts 107°
2026-05-07 20:40 50.09403 8.60395 35060 ft 463 kts 107°
2026-05-07 20:41 50.07575 8.70026 35056 ft 463 kts 107°
2026-05-07 20:41 50.05731 8.79631 35071 ft 463 kts 108°
2026-05-07 20:42 50.03643 8.89121 35081 ft 462 kts 110°
2026-05-07 20:42 50.01500 8.98491 35122 ft 461 kts 110°
2026-05-07 20:43 49.99349 9.07962 35129 ft 461 kts 110°
2026-05-07 20:43 49.97228 9.17306 35127 ft 461 kts 110°
2026-05-07 20:44 49.95083 9.26681 35129 ft 460 kts 110°
2026-05-07 20:44 49.92936 9.36030 35125 ft 459 kts 110°
2026-05-07 20:45 49.90779 9.45368 35131 ft 459 kts 110°
2026-05-07 20:45 49.88618 9.54690 35125 ft 458 kts 110°
2026-05-07 20:46 49.86457 9.63988 35124 ft 457 kts 111°
2026-05-07 20:46 49.84303 9.73179 35101 ft 457 kts 111°
2026-05-07 20:47 49.82120 9.82464 35059 ft 458 kts 111°
2026-05-07 20:47 49.79953 9.91680 35042 ft 458 kts 111°
2026-05-07 20:48 49.77751 10.00960 35043 ft 457 kts 111°
2026-05-07 20:48 49.75556 10.10207 35041 ft 457 kts 111°
2026-05-07 20:49 49.73360 10.19435 35038 ft 457 kts 111°
2026-05-07 20:49 49.71155 10.28607 35037 ft 458 kts 112°
2026-05-07 20:50 49.68925 10.37810 35041 ft 460 kts 112°
2026-05-07 20:50 49.66698 10.47090 35043 ft 462 kts 112°
2026-05-07 20:51 49.64451 10.56337 35084 ft 464 kts 112°
2026-05-07 20:51 49.62164 10.65674 35094 ft 455 kts 112°
2026-05-07 20:52 49.59936 10.74774 35092 ft 455 kts 112°
2026-05-07 20:52 49.57695 10.83888 35091 ft 455 kts 112°
2026-05-07 20:53 49.55427 10.93082 35091 ft 454 kts 112°
2026-05-07 20:53 49.53189 11.02096 35092 ft 454 kts 112°
2026-05-07 20:54 49.50810 11.11133 35090 ft 454 kts 114°
2026-05-07 20:54 49.48373 11.20048 35089 ft 454 kts 114°
2026-05-07 20:55 49.45902 11.29056 35089 ft 455 kts 114°
2026-05-07 20:55 49.43454 11.37994 35090 ft 458 kts 114°
2026-05-07 20:56 49.40968 11.47061 35113 ft 458 kts 114°
2026-05-07 20:56 49.38487 11.56025 35124 ft 458 kts 114°
2026-05-07 20:57 49.35997 11.64996 35125 ft 459 kts 114°
2026-05-07 20:57 49.33487 11.74020 35132 ft 459 kts 114°
2026-05-07 20:58 49.30954 11.83066 35128 ft 460 kts 115°
2026-05-07 20:58 49.28443 11.92051 35124 ft 460 kts 115°
2026-05-07 20:59 49.25908 12.01076 35126 ft 460 kts 115°
2026-05-07 20:59 49.23363 12.10065 35127 ft 460 kts 114°
2026-05-07 21:00 49.20844 12.18930 35125 ft 460 kts 114°
2026-05-07 21:00 49.18271 12.27985 35125 ft 460 kts 114°
2026-05-07 21:01 49.15702 12.36981 35108 ft 460 kts 115°
2026-05-07 21:01 49.13136 12.45901 35074 ft 460 kts 115°
2026-05-07 21:02 49.10552 12.54861 35034 ft 462 kts 115°
2026-05-07 21:02 49.07974 12.63821 35039 ft 463 kts 115°
2026-05-07 21:03 49.05381 12.72795 35043 ft 464 kts 115°
2026-05-07 21:03 49.02736 12.81822 35065 ft 465 kts 116°
2026-05-07 21:04 49.00536 12.89341 35103 ft 465 kts 115°
2026-05-07 21:04 48.97927 12.98278 35128 ft 465 kts 116°
2026-05-07 21:05 48.94836 13.08785 35129 ft 465 kts 116°
2026-05-07 21:05 48.92178 13.17758 35127 ft 465 kts 116°
2026-05-07 21:06 48.89527 13.26725 35129 ft 463 kts 116°
2026-05-07 21:06 48.86894 13.35572 35129 ft 462 kts 116°
2026-05-07 21:07 48.84239 13.44438 35125 ft 461 kts 116°
2026-05-07 21:07 48.81595 13.53259 35119 ft 459 kts 117°
2026-05-07 21:08 48.78938 13.62099 35084 ft 459 kts 116°
2026-05-07 21:08 48.76284 13.70936 35038 ft 460 kts 115°
2026-05-07 21:09 48.73930 13.79970 35037 ft 461 kts 114°
2026-05-07 21:09 48.71637 13.89050 35039 ft 462 kts 114°
2026-05-07 21:10 48.69323 13.98148 35050 ft 463 kts 114°
2026-05-07 21:10 48.66975 14.07204 35099 ft 463 kts 114°
2026-05-07 21:11 48.65020 14.14749 35135 ft 463 kts 114°
2026-05-07 21:11 48.61490 14.28352 35125 ft 464 kts 114°
2026-05-07 21:12 48.58735 14.38896 35131 ft 463 kts 115°
2026-05-07 21:12 48.56356 14.47974 35125 ft 461 kts 115°
2026-05-07 21:13 48.54394 14.55437 35126 ft 459 kts 115°
2026-05-07 21:13 48.51653 14.65799 35129 ft 456 kts 115°
2026-05-07 21:14 48.49297 14.74658 35122 ft 454 kts 115°
2026-05-07 21:14 48.46948 14.83505 35087 ft 453 kts 116°
2026-05-07 21:15 48.44600 14.92286 35042 ft 452 kts 116°
2026-05-07 21:15 48.42256 15.00991 35023 ft 453 kts 116°
2026-05-07 21:16 48.39874 15.09848 34998 ft 455 kts 116°
2026-05-07 21:16 48.37491 15.18645 34994 ft 457 kts 116°
2026-05-07 21:17 48.35072 15.27567 35001 ft 459 kts 117°
2026-05-07 21:17 48.32664 15.36388 35040 ft 460 kts 117°
2026-05-07 21:18 48.30206 15.45347 35096 ft 460 kts 117°
2026-05-07 21:18 48.27758 15.54276 35095 ft 461 kts 117°
2026-05-07 21:19 48.25332 15.63123 35091 ft 460 kts 117°
2026-05-07 21:19 48.22862 15.71984 35090 ft 459 kts 117°
2026-05-07 21:20 48.20414 15.80794 35088 ft 457 kts 117°
2026-05-07 21:20 48.18389 15.88129 35092 ft 454 kts 117°
2026-05-07 21:21 48.15568 15.98248 35080 ft 451 kts 118°
2026-05-07 21:21 48.13537 16.05443 35077 ft 449 kts 118°
2026-05-07 21:22 48.11125 16.14014 35064 ft 446 kts 118°
2026-05-07 21:22 48.08717 16.22538 35023 ft 444 kts 118°
2026-05-07 21:23 48.06295 16.31076 34982 ft 445 kts 117°
2026-05-07 21:23 48.03858 16.39636 35017 ft 451 kts 117°
2026-05-07 21:24 48.01387 16.48341 35037 ft 459 kts 117°
2026-05-07 21:24 47.98865 16.57109 35045 ft 459 kts 117°
2026-05-07 21:25 47.96334 16.65855 35042 ft 459 kts 117°
2026-05-07 21:25 47.93823 16.74571 35038 ft 459 kts 117°
2026-05-07 21:26 47.91295 16.83313 35039 ft 461 kts 118°
2026-05-07 21:26 47.88715 16.92159 35037 ft 463 kts 118°
2026-05-07 21:27 47.86147 17.00967 35036 ft 463 kts 118°
2026-05-07 21:27 47.83585 17.09720 35035 ft 463 kts 119°
2026-05-07 21:28 47.80650 17.18240 35034 ft 459 kts 123°
2026-05-07 21:28 47.77608 17.26434 35019 ft 455 kts 124°
2026-05-07 21:29 47.74555 17.34676 34979 ft 453 kts 124°
2026-05-07 21:29 47.71553 17.42882 34992 ft 451 kts 125°
2026-05-07 21:30 47.68521 17.51073 34985 ft 452 kts 125°
2026-05-07 21:30 47.65489 17.59259 34986 ft 453 kts 125°
2026-05-07 21:31 47.62445 17.67447 34998 ft 456 kts 125°
2026-05-07 21:31 47.59367 17.75673 34996 ft 459 kts 125°
2026-05-07 21:32 47.56277 17.83947 35013 ft 461 kts 125°
2026-05-07 21:32 47.53173 17.92255 35057 ft 462 kts 125°
2026-05-07 21:33 47.50024 18.00563 35095 ft 462 kts 126°
2026-05-07 21:33 47.46889 18.08887 35098 ft 463 kts 125°
2026-05-07 21:34 47.43768 18.17193 35101 ft 461 kts 125°
2026-05-07 21:34 47.40623 18.25445 35098 ft 459 kts 126°
2026-05-07 21:35 47.37525 18.33552 35098 ft 456 kts 126°
2026-05-07 21:35 47.34412 18.41692 35097 ft 453 kts 126°
2026-05-07 21:36 47.31494 18.49321 35096 ft 450 kts 126°
2026-05-07 21:36 47.28404 18.57356 35094 ft 447 kts 126°
2026-05-07 21:37 47.25355 18.65245 35080 ft 444 kts 126°
2026-05-07 21:37 47.22304 18.73135 35054 ft 444 kts 126°
2026-05-07 21:38 47.19221 18.81091 35058 ft 452 kts 126°
2026-05-07 21:38 47.16058 18.89212 35062 ft 461 kts 126°
2026-05-07 21:39 47.12890 18.97339 35060 ft 461 kts 126°
2026-05-07 21:39 47.09679 19.05548 35059 ft 461 kts 126°
2026-05-07 21:40 47.06490 19.13674 35060 ft 459 kts 126°
2026-05-07 21:40 47.03299 19.21770 35061 ft 458 kts 126°
2026-05-07 21:41 47.00115 19.29836 35060 ft 459 kts 126°
2026-05-07 21:41 46.96921 19.37922 35059 ft 458 kts 126°
2026-05-07 21:42 46.93716 19.45953 35059 ft 458 kts 126°
2026-05-07 21:42 46.90510 19.54001 35059 ft 458 kts 126°
2026-05-07 21:43 46.87279 19.62103 35061 ft 459 kts 125°
2026-05-07 21:43 46.84047 19.70157 35073 ft 459 kts 126°
2026-05-07 21:44 46.80812 19.78122 35071 ft 460 kts 126°
2026-05-07 21:44 46.77587 19.86220 35048 ft 462 kts 125°
2026-05-07 21:45 46.74334 19.94291 35064 ft 462 kts 126°
2026-05-07 21:45 46.71079 20.02283 35104 ft 460 kts 126°
2026-05-07 21:46 46.67779 20.10371 35098 ft 460 kts 126°
2026-05-07 21:46 46.64554 20.18297 35095 ft 458 kts 126°
2026-05-07 21:47 46.61303 20.26258 35099 ft 457 kts 125°
2026-05-07 21:47 46.58041 20.34196 35091 ft 455 kts 126°
2026-05-07 21:48 46.54796 20.42087 35062 ft 454 kts 126°
2026-05-07 21:48 46.51545 20.49964 35018 ft 454 kts 126°
2026-05-07 21:49 46.48291 20.57821 35013 ft 455 kts 126°
2026-05-07 21:49 46.45040 20.65677 35010 ft 456 kts 126°
2026-05-07 21:50 46.41747 20.73585 35007 ft 459 kts 126°
2026-05-07 21:50 46.38407 20.81562 35010 ft 462 kts 126°
2026-05-07 21:51 46.35085 20.89488 35016 ft 464 kts 126°
2026-05-07 21:51 46.31729 20.97504 35040 ft 466 kts 126°
2026-05-07 21:52 46.28364 21.05502 35087 ft 467 kts 126°
2026-05-07 21:52 46.24840 21.13443 35100 ft 466 kts 129°
2026-05-07 21:53 46.21097 21.21066 35096 ft 465 kts 130°
2026-05-07 21:53 46.17314 21.28627 35099 ft 463 kts 129°
2026-05-07 21:54 46.13618 21.36123 35100 ft 461 kts 129°
2026-05-07 21:54 46.09920 21.43642 35094 ft 458 kts 129°
2026-05-07 21:55 46.06220 21.51105 35097 ft 455 kts 130°
2026-05-07 21:55 46.02600 21.58324 35077 ft 453 kts 130°
2026-05-07 21:56 45.98925 21.65658 35039 ft 451 kts 129°
2026-05-07 21:56 45.95275 21.73006 35006 ft 450 kts 130°
2026-05-07 21:57 45.91627 21.80273 35009 ft 450 kts 129°
2026-05-07 21:57 45.87924 21.87605 35013 ft 452 kts 129°
2026-05-07 21:58 45.84253 21.94884 35012 ft 454 kts 129°
2026-05-07 21:58 45.80498 22.02307 35008 ft 458 kts 129°
2026-05-07 21:59 45.76741 22.09733 35009 ft 462 kts 129°
2026-05-07 21:59 45.72969 22.17149 35017 ft 465 kts 129°
2026-05-07 22:00 45.69164 22.24621 35064 ft 467 kts 129°
2026-05-07 22:00 45.65314 22.32140 35077 ft 459 kts 129°
2026-05-07 22:01 45.61571 22.39458 35069 ft 454 kts 129°
2026-05-07 22:01 45.57831 22.46742 35064 ft 454 kts 129°
2026-05-07 22:02 45.54080 22.53998 35061 ft 455 kts 129°
2026-05-07 22:02 45.50357 22.61212 35060 ft 456 kts 129°
2026-05-07 22:03 45.46579 22.68524 35060 ft 457 kts 129°
2026-05-07 22:03 45.42788 22.75812 35061 ft 457 kts 129°
2026-05-07 22:04 45.39643 22.81843 35061 ft 457 kts 130°
2026-05-07 22:04 45.35241 22.90296 35062 ft 456 kts 130°
2026-05-07 22:05 45.31455 22.97538 35049 ft 457 kts 130°
2026-05-07 22:05 45.28276 23.03597 35040 ft 457 kts 130°
2026-05-07 22:06 45.24491 23.10783 35046 ft 456 kts 130°
2026-05-07 22:06 45.20690 23.18001 35032 ft 456 kts 130°
2026-05-07 22:07 45.16881 23.25207 35060 ft 455 kts 130°
2026-05-07 22:07 45.13099 23.32327 35112 ft 453 kts 130°
2026-05-07 22:08 45.09288 23.39513 35117 ft 453 kts 130°
2026-05-07 22:08 45.05523 23.46590 35114 ft 453 kts 130°
2026-05-07 22:09 45.01768 23.53634 35109 ft 453 kts 130°
2026-05-07 22:09 44.97960 23.60751 35075 ft 453 kts 130°
2026-05-07 22:10 44.94140 23.67916 35032 ft 454 kts 130°
2026-05-07 22:10 44.90310 23.75032 35032 ft 454 kts 131°
2026-05-07 22:11 44.86521 23.82025 35044 ft 454 kts 131°
2026-05-07 22:11 44.82682 23.89133 35035 ft 454 kts 130°
2026-05-07 22:12 44.78889 23.96177 35046 ft 454 kts 130°
2026-05-07 22:12 44.75027 24.03280 35096 ft 452 kts 130°
2026-05-07 22:13 44.71229 24.10248 35123 ft 451 kts 129°
2026-05-07 22:13 44.67405 24.17245 35120 ft 451 kts 130°
2026-05-07 22:14 44.63616 24.24187 35123 ft 450 kts 130°
2026-05-07 22:14 44.59790 24.31192 35120 ft 449 kts 130°
2026-05-07 22:15 44.55970 24.38136 35110 ft 449 kts 130°
2026-05-07 22:15 44.52140 24.45082 35080 ft 449 kts 130°
2026-05-07 22:16 44.48343 24.51936 35037 ft 449 kts 130°
2026-05-07 22:16 44.44475 24.58928 35029 ft 450 kts 130°
2026-05-07 22:17 44.40657 24.65824 35022 ft 451 kts 130°
2026-05-07 22:17 44.36811 24.72745 35033 ft 452 kts 130°
2026-05-07 22:18 44.31002 24.83150 35105 ft 452 kts 130°
2026-05-07 22:19 44.27145 24.90054 35106 ft 453 kts 130°
2026-05-07 22:19 44.23247 24.97001 35107 ft 453 kts 130°
2026-05-07 22:20 44.19358 25.03913 35114 ft 452 kts 130°
2026-05-07 22:20 44.15488 25.10797 35100 ft 453 kts 130°
2026-05-07 22:21 44.11574 25.17715 35061 ft 453 kts 130°
2026-05-07 22:21 44.07668 25.24603 35017 ft 454 kts 130°
2026-05-07 22:22 44.03783 25.31453 35011 ft 455 kts 130°
2026-05-07 22:22 43.99850 25.38386 35021 ft 456 kts 130°
2026-05-07 22:23 43.95898 25.45300 35026 ft 457 kts 130°
2026-05-07 22:23 43.91929 25.52232 35068 ft 458 kts 130°
2026-05-07 22:24 43.87977 25.59136 35116 ft 457 kts 130°
2026-05-07 22:24 43.84042 25.65983 35110 ft 456 kts 130°
2026-05-07 22:25 43.80088 25.72851 35111 ft 455 kts 130°
2026-05-07 22:25 43.76153 25.79654 35104 ft 453 kts 130°
2026-05-07 22:26 43.72559 25.86866 35096 ft 459 kts 124°
2026-05-07 22:26 43.69159 25.94384 35083 ft 464 kts 123°
2026-05-07 22:27 43.65741 26.01938 35077 ft 464 kts 123°
2026-05-07 22:27 43.62274 26.09452 34768 ft 469 kts 124°
2026-05-07 22:27 43.60485 26.13309 34349 ft 470 kts 123°
2026-05-07 22:28 43.58735 26.17095 33947 ft 466 kts 123°
2026-05-07 22:28 43.57007 26.20849 33548 ft 461 kts 123°
2026-05-07 22:28 43.55307 26.24553 32961 ft 459 kts 123°
2026-05-07 22:28 43.53611 26.28243 32448 ft 455 kts 123°
2026-05-07 22:29 43.51897 26.31945 31996 ft 450 kts 124°
2026-05-07 22:29 43.50228 26.35531 31699 ft 440 kts 124°
2026-05-07 22:29 43.48589 26.39044 31252 ft 435 kts 124°
2026-05-07 22:29 43.46950 26.42559 30729 ft 432 kts 124°
2026-05-07 22:30 43.45348 26.45994 30403 ft 424 kts 124°
2026-05-07 22:30 43.43767 26.49379 29876 ft 421 kts 124°
2026-05-07 22:30 43.42176 26.52788 29333 ft 419 kts 124°
2026-05-07 22:30 43.40636 26.56087 28827 ft 416 kts 124°
2026-05-07 22:31 43.39052 26.59476 28304 ft 413 kts 124°
2026-05-07 22:31 43.37506 26.62782 27817 ft 410 kts 124°
2026-05-07 22:31 43.35966 26.66074 27298 ft 407 kts 124°
2026-05-07 22:31 43.34431 26.69341 26773 ft 405 kts 124°
2026-05-07 22:32 43.32935 26.72520 26284 ft 403 kts 125°
2026-05-07 22:32 43.31405 26.75770 25769 ft 400 kts 125°
2026-05-07 22:32 43.29899 26.78965 25232 ft 399 kts 125°
2026-05-07 22:32 43.28399 26.82148 24816 ft 395 kts 125°
2026-05-07 22:33 43.26920 26.85287 24548 ft 387 kts 124°
2026-05-07 22:33 43.25475 26.88353 24290 ft 378 kts 125°
2026-05-07 22:33 43.24050 26.91360 24032 ft 371 kts 125°
2026-05-07 22:33 43.22644 26.94315 23778 ft 370 kts 125°
2026-05-07 22:34 43.21232 26.97284 23520 ft 371 kts 124°
2026-05-07 22:34 43.19829 27.00261 23335 ft 372 kts 124°
2026-05-07 22:34 43.18430 27.03214 23203 ft 372 kts 124°
2026-05-07 22:34 43.17033 27.06154 23099 ft 371 kts 124°
2026-05-07 22:35 43.15609 27.09151 23095 ft 369 kts 124°
2026-05-07 22:35 43.14214 27.12065 23100 ft 372 kts 124°
2026-05-07 22:35 43.12784 27.15060 23104 ft 371 kts 124°
2026-05-07 22:35 43.11385 27.17999 23106 ft 372 kts 124°
2026-05-07 22:36 43.09971 27.20964 23108 ft 371 kts 124°
2026-05-07 22:36 43.08560 27.23920 23110 ft 372 kts 124°
2026-05-07 22:36 43.07144 27.26890 23111 ft 372 kts 124°
2026-05-07 22:36 43.05731 27.29841 23112 ft 371 kts 124°
2026-05-07 22:37 43.04306 27.32800 23113 ft 373 kts 123°
2026-05-07 22:37 43.02872 27.35767 23113 ft 372 kts 123°
2026-05-07 22:37 43.01450 27.38724 23113 ft 373 kts 123°
2026-05-07 22:37 43.00041 27.41661 23113 ft 373 kts 123°
2026-05-07 22:38 42.98539 27.44527 23107 ft 372 kts 130°
2026-05-07 22:38 42.96805 27.47237 23118 ft 373 kts 132°
2026-05-07 22:38 42.95061 27.49807 23117 ft 373 kts 133°
2026-05-07 22:38 42.93249 27.52427 23124 ft 383 kts 133°
2026-05-07 22:39 42.91391 27.55133 23126 ft 398 kts 133°
2026-05-07 22:39 42.89527 27.57898 23122 ft 404 kts 132°
2026-05-07 22:39 42.87632 27.60743 23121 ft 409 kts 132°
2026-05-07 22:39 42.85695 27.63656 23118 ft 413 kts 132°
2026-05-07 22:40 42.83760 27.66541 23116 ft 413 kts 133°
2026-05-07 22:40 42.81818 27.69419 23116 ft 414 kts 133°
2026-05-07 22:40 42.79866 27.72307 23115 ft 413 kts 133°
2026-05-07 22:40 42.77905 27.75203 23115 ft 414 kts 133°
2026-05-07 22:41 42.75951 27.78074 23115 ft 414 kts 133°
2026-05-07 22:41 42.74020 27.80914 23117 ft 416 kts 132°
2026-05-07 22:41 42.72048 27.83837 23116 ft 420 kts 132°
2026-05-07 22:41 42.70076 27.86767 23114 ft 418 kts 132°
2026-05-07 22:42 42.68105 27.89682 23115 ft 419 kts 132°
2026-05-07 22:42 42.66121 27.92605 23114 ft 419 kts 133°
2026-05-07 22:42 42.64163 27.95487 23114 ft 419 kts 133°
2026-05-07 22:42 42.62136 27.98457 23114 ft 419 kts 133°
2026-05-07 22:43 42.60184 28.01318 23114 ft 419 kts 133°
2026-05-07 22:43 42.58223 28.04189 23043 ft 419 kts 133°
2026-05-07 22:43 42.56221 28.07114 22915 ft 416 kts 133°
2026-05-07 22:43 42.54268 28.09980 22789 ft 417 kts 133°
2026-05-07 22:44 42.52970 28.11888 22701 ft 415 kts 133°
2026-05-07 22:44 42.50341 28.15740 22530 ft 414 kts 133°
2026-05-07 22:44 42.48381 28.18592 22399 ft 413 kts 133°
2026-05-07 22:44 42.46431 28.21434 22272 ft 412 kts 133°
2026-05-07 22:45 42.44465 28.24300 22138 ft 411 kts 133°
2026-05-07 22:45 42.42538 28.27098 22086 ft 410 kts 133°
2026-05-07 22:45 42.40603 28.29910 22094 ft 413 kts 132°
2026-05-07 22:45 42.38621 28.32789 22103 ft 415 kts 132°
2026-05-07 22:46 42.36658 28.35622 22108 ft 415 kts 133°
2026-05-07 22:46 42.34681 28.38482 22113 ft 415 kts 132°
2026-05-07 22:46 42.32724 28.41331 22116 ft 415 kts 132°
2026-05-07 22:46 42.30764 28.44182 22118 ft 415 kts 132°
2026-05-07 22:47 42.28786 28.47044 22120 ft 415 kts 133°
2026-05-07 22:47 42.27454 28.48965 22120 ft 415 kts 133°
2026-05-07 22:47 42.24841 28.52732 22121 ft 415 kts 133°
2026-05-07 22:47 42.22873 28.55567 22121 ft 415 kts 133°
2026-05-07 22:48 42.20898 28.58407 22121 ft 415 kts 133°
2026-05-07 22:48 42.18918 28.61245 22121 ft 415 kts 133°
2026-05-07 22:48 42.16935 28.64090 22122 ft 415 kts 133°
2026-05-07 22:48 42.14988 28.66886 22123 ft 415 kts 133°
2026-05-07 22:49 42.13014 28.69729 22123 ft 415 kts 133°
2026-05-07 22:49 42.11030 28.72580 22123 ft 415 kts 133°
2026-05-07 22:49 42.08963 28.75282 22089 ft 415 kts 144°
2026-05-07 22:49 42.06415 28.76938 22001 ft 400 kts 169°
2026-05-07 22:50 42.03712 28.77247 22055 ft 383 kts 183°
2026-05-07 22:50 42.01110 28.77137 22018 ft 375 kts 185°
2026-05-07 22:50 41.99351 28.77042 21908 ft 371 kts 184°
2026-05-07 22:50 41.96785 28.76986 21678 ft 367 kts 182°
2026-05-07 22:51 41.94224 28.77061 21409 ft 367 kts 180°
2026-05-07 22:51 41.91683 28.77207 21120 ft 364 kts 179°
2026-05-07 22:51 41.89169 28.77361 20827 ft 363 kts 179°
2026-05-07 22:51 41.86657 28.77488 20532 ft 361 kts 180°
2026-05-07 22:52 41.84147 28.77586 20235 ft 357 kts 180°
2026-05-07 22:52 41.81674 28.77674 19940 ft 355 kts 180°
2026-05-07 22:52 41.79205 28.77743 19641 ft 353 kts 182°
2026-05-07 22:52 41.76808 28.77251 19304 ft 346 kts 204°
2026-05-07 22:53 41.74824 28.75571 19030 ft 335 kts 229°
2026-05-07 22:53 41.73391 28.73126 18830 ft 333 kts 238°
2026-05-07 22:53 41.72118 28.70583 18611 ft 329 kts 239°
2026-05-07 22:53 41.70873 28.68072 18330 ft 326 kts 239°
2026-05-07 22:54 41.69575 28.65563 18020 ft 326 kts 237°
2026-05-07 22:54 41.68233 28.63078 17719 ft 323 kts 237°
2026-05-07 22:54 41.66917 28.60685 17434 ft 323 kts 236°
2026-05-07 22:54 41.65581 28.58278 17160 ft 322 kts 236°
2026-05-07 22:55 41.64255 28.55879 16889 ft 319 kts 236°
2026-05-07 22:55 41.62939 28.53481 16621 ft 318 kts 236°
2026-05-07 22:55 41.62069 28.51895 16443 ft 317 kts 236°
2026-05-07 22:55 41.60762 28.49506 16170 ft 316 kts 236°
2026-05-07 22:56 41.59486 28.47165 15910 ft 314 kts 235°
2026-05-07 22:56 41.57763 28.44028 15560 ft 315 kts 235°
2026-05-07 22:56 41.56474 28.41678 15303 ft 313 kts 236°
2026-05-07 22:56 41.55184 28.39334 15039 ft 310 kts 235°
2026-05-07 22:57 41.53905 28.37018 14777 ft 309 kts 235°
2026-05-07 22:57 41.52621 28.34708 14516 ft 309 kts 234°
2026-05-07 22:57 41.51328 28.32432 14256 ft 306 kts 234°
2026-05-07 22:57 41.50044 28.30183 14001 ft 307 kts 234°
2026-05-07 22:58 41.48743 28.27911 13741 ft 305 kts 234°
2026-05-07 22:58 41.47460 28.25671 13486 ft 302 kts 234°
2026-05-07 22:58 41.46194 28.23444 13234 ft 302 kts 234°
2026-05-07 22:58 41.44933 28.21214 12981 ft 299 kts 234°
2026-05-07 22:59 41.43687 28.19025 12733 ft 298 kts 234°
2026-05-07 22:59 41.42442 28.16839 12483 ft 296 kts 233°
2026-05-07 22:59 41.41203 28.14655 12236 ft 296 kts 233°
2026-05-07 22:59 41.39951 28.12470 11983 ft 294 kts 232°
2026-05-07 23:00 41.38462 28.10611 11634 ft 295 kts 212°
2026-05-07 23:00 41.36536 28.09803 11394 ft 291 kts 184°
2026-05-07 23:00 41.34550 28.09850 11324 ft 278 kts 178°
2026-05-07 23:00 41.32651 28.10044 11058 ft 270 kts 177°
2026-05-07 23:01 41.30804 28.10174 10619 ft 271 kts 180°
2026-05-07 23:01 41.28918 28.10201 10356 ft 268 kts 181°
2026-05-07 23:01 41.27047 28.10178 10177 ft 269 kts 182°
2026-05-07 23:01 41.25214 28.09819 9982 ft 265 kts 201°
2026-05-07 23:02 41.23700 28.08523 9961 ft 263 kts 224°
2026-05-07 23:02 41.22416 28.06752 10000 ft 263 kts 229°
2026-05-07 23:02 41.21170 28.04969 10010 ft 263 kts 227°
2026-05-07 23:02 41.19870 28.03252 10015 ft 263 kts 225°
2026-05-07 23:03 41.18494 28.01644 10012 ft 264 kts 216°
2026-05-07 23:03 41.16948 28.00379 10021 ft 265 kts 210°
2026-05-07 23:03 41.15324 27.99213 10023 ft 265 kts 209°
2026-05-07 23:03 41.13697 27.98056 10023 ft 265 kts 210°
2026-05-07 23:04 41.12099 27.96878 10023 ft 265 kts 211°
2026-05-07 23:04 41.10450 27.95741 10017 ft 265 kts 202°
2026-05-07 23:04 41.08710 27.95019 10023 ft 266 kts 196°
2026-05-07 23:04 41.06882 27.94447 10024 ft 267 kts 194°
2026-05-07 23:05 41.05079 27.93890 10024 ft 266 kts 195°
2026-05-07 23:05 41.03283 27.93295 10024 ft 266 kts 196°
2026-05-07 23:05 41.01460 27.92787 10016 ft 267 kts 187°
2026-05-07 23:05 40.99600 27.92690 10023 ft 268 kts 181°
2026-05-07 23:06 40.97732 27.92772 10025 ft 268 kts 179°
2026-05-07 23:06 40.95891 27.92967 10016 ft 270 kts 169°
2026-05-07 23:06 40.94183 27.93982 9990 ft 272 kts 140°
2026-05-07 23:06 40.93145 27.96021 9938 ft 276 kts 107°
2026-05-07 23:07 40.93077 27.98566 9749 ft 274 kts 78°
2026-05-07 23:07 40.93511 28.00957 9599 ft 265 kts 76°
2026-05-07 23:07 40.93899 28.03329 9151 ft 266 kts 80°
2026-05-07 23:07 40.94146 28.05780 8591 ft 271 kts 83°
2026-05-07 23:08 40.94351 28.08263 8187 ft 271 kts 83°
2026-05-07 23:08 40.94598 28.10735 7958 ft 272 kts 81°
2026-05-07 23:08 40.94887 28.13210 7689 ft 273 kts 81°
2026-05-07 23:08 40.95167 28.15680 7403 ft 271 kts 82°
2026-05-07 23:09 40.95423 28.18165 7109 ft 270 kts 83°
2026-05-07 23:09 40.95669 28.20613 6820 ft 269 kts 82°
2026-05-07 23:09 40.95925 28.23056 6527 ft 265 kts 82°
2026-05-07 23:09 40.96185 28.25447 6251 ft 259 kts 82°
2026-05-07 23:10 40.96432 28.27774 5963 ft 258 kts 82°
2026-05-07 23:10 40.96677 28.30133 5673 ft 257 kts 82°
2026-05-07 23:10 40.96922 28.32487 5380 ft 257 kts 82°
2026-05-07 23:10 40.97166 28.34818 5104 ft 256 kts 82°
2026-05-07 23:11 40.97405 28.37118 4826 ft 255 kts 82°
2026-05-07 23:11 40.97583 28.39437 4556 ft 254 kts 87°
2026-05-07 23:11 40.97617 28.41793 4376 ft 249 kts 91°
2026-05-07 23:11 40.97569 28.44096 4248 ft 253 kts 92°
2026-05-07 23:12 40.97532 28.46418 4158 ft 249 kts 90°
2026-05-07 23:12 40.97542 28.48633 4032 ft 239 kts 89°
2026-05-07 23:12 40.97519 28.50797 3978 ft 239 kts 95°
2026-05-07 23:12 40.97292 28.53032 3900 ft 246 kts 99°
2026-05-07 23:13 40.97042 28.55270 3853 ft 242 kts 97°
2026-05-07 23:13 40.96870 28.57455 3676 ft 237 kts 95°
2026-05-07 23:13 40.96736 28.59576 3477 ft 228 kts 95°
2026-05-07 23:13 40.96602 28.61596 3413 ft 224 kts 96°
2026-05-07 23:14 40.96408 28.63727 3285 ft 232 kts 97°
2026-05-07 23:14 40.96226 28.65830 3213 ft 227 kts 93°
2026-05-07 23:14 40.96416 28.67823 3079 ft 217 kts 64°
2026-05-07 23:14 40.97297 28.69291 2970 ft 200 kts 30°
2026-05-07 23:15 40.98517 28.70160 3087 ft 194 kts 20°
2026-05-07 23:15 40.99755 28.70909 3083 ft 195 kts 17°
2026-05-07 23:15 41.01054 28.71213 3028 ft 188 kts 358°
2026-05-07 23:15 41.02337 28.71208 3047 ft 188 kts 354°
2026-05-07 23:16 41.03659 28.71156 3042 ft 187 kts 354°
2026-05-07 23:16 41.04962 28.71133 3107 ft 188 kts 355°
2026-05-07 23:16 41.06255 28.71116 3089 ft 187 kts 355°
2026-05-07 23:16 41.07561 28.71096 3066 ft 187 kts 354°
2026-05-07 23:17 41.08864 28.71069 3047 ft 187 kts 355°
2026-05-07 23:17 41.10140 28.71044 3028 ft 177 kts 354°
2026-05-07 23:17 41.11326 28.71024 3008 ft 166 kts 354°
2026-05-07 23:17 41.12466 28.71003 2998 ft 166 kts 354°
2026-05-07 23:18 41.13631 28.70982 2825 ft 164 kts 354°
2026-05-07 23:18 41.14742 28.70955 2623 ft 162 kts 354°
2026-05-07 23:18 41.15859 28.70932 2413 ft 157 kts 354°
2026-05-07 23:18 41.16929 28.70919 2219 ft 149 kts 354°
2026-05-07 23:19 41.17930 28.70902 2065 ft 145 kts 353°
2026-05-07 23:19 41.18945 28.70881 1849 ft 145 kts 354°
2026-05-07 23:19 41.19948 28.70858 1642 ft 144 kts 354°
2026-05-07 23:19 41.20951 28.70843 1443 ft 143 kts 355°
2026-05-07 23:20 41.21949 28.70826 1248 ft 143 kts 355°
2026-05-07 23:20 41.22937 28.70809 1058 ft 142 kts 355°
2026-05-07 23:20 41.23931 28.70792 868 ft 142 kts 357°
2026-05-07 23:20 41.24914 28.70791 716 ft 140 kts 356°
2026-05-07 23:21 41.25909 28.70762 516 ft 144 kts 357°
2026-05-07 23:21 41.26896 28.70751 340 ft 137 kts 359°
2026-05-07 23:21 41.27695 28.70710 340 ft 83 kts 356°
2026-05-07 23:21 41.28057 28.70717 339 ft 30 kts 359°
2026-05-07 23:22 41.28216 28.70718 339 ft 18 kts 13°
2026-05-07 23:22 41.28299 28.70768 339 ft 10 kts 36°
2026-05-07 23:22 41.28369 28.70834 339 ft 0 kts 35°
2026-05-07 23:23 41.28368 28.70834 339 ft 0 kts 35°
2026-05-07 23:24 41.28369 28.70834 339 ft 1 kts 35°
2026-05-07 23:25 41.28408 28.70870 339 ft 7 kts 35°
2026-05-07 23:25 41.28409 28.70872 339 ft 1 kts 35°
2026-05-07 23:25 41.28423 28.70885 339 ft 4 kts 34°
2026-05-07 23:25 41.28452 28.70909 339 ft 6 kts 32°
2026-05-07 23:26 41.28487 28.70958 339 ft 8 kts 64°
2026-05-07 23:26 41.28498 28.71044 339 ft 11 kts 84°
2026-05-07 23:26 41.28501 28.71154 339 ft 13 kts 89°
2026-05-07 23:26 41.28502 28.71286 339 ft 15 kts 90°
2026-05-07 23:27 41.28504 28.71570 339 ft 13 kts 89°
2026-05-07 23:27 41.28506 28.71685 339 ft 13 kts 89°
2026-05-07 23:27 41.28507 28.71815 339 ft 15 kts 89°
2026-05-07 23:28 41.28509 28.71968 339 ft 16 kts 89°
2026-05-07 23:28 41.28509 28.72105 339 ft 13 kts 89°
2026-05-07 23:28 41.28512 28.72210 339 ft 7 kts 87°
2026-05-07 23:28 41.28506 28.72241 339 ft 4 kts 137°
2026-05-07 23:29 41.28473 28.72261 339 ft 6 kts 166°
2026-05-07 23:29 41.28421 28.72266 339 ft 9 kts 179°
2026-05-07 23:29 41.28351 28.72267 339 ft 11 kts 179°
2026-05-07 23:29 41.28264 28.72268 339 ft 14 kts 179°
2026-05-07 23:30 41.28162 28.72270 339 ft 16 kts 179°
2026-05-07 23:30 41.28049 28.72273 339 ft 17 kts 179°
2026-05-07 23:30 41.27927 28.72275 339 ft 18 kts 179°
2026-05-07 23:30 41.27809 28.72277 339 ft 9 kts 178°
2026-05-07 23:31 41.27741 28.72279 339 ft 11 kts 179°
2026-05-07 23:31 41.27655 28.72280 339 ft 14 kts 180°
2026-05-07 23:31 41.27551 28.72281 339 ft 16 kts 179°
2026-05-07 23:31 41.27435 28.72284 339 ft 18 kts 179°
2026-05-07 23:32 41.27313 28.72286 339 ft 17 kts 179°
2026-05-07 23:32 41.27189 28.72288 339 ft 19 kts 179°
2026-05-07 23:32 41.27049 28.72291 339 ft 21 kts 179°
2026-05-07 23:32 41.26914 28.72294 339 ft 13 kts 180°
2026-05-07 23:33 41.26823 28.72295 339 ft 11 kts 180°
2026-05-07 23:33 41.26758 28.72297 339 ft 5 kts 175°
2026-05-07 23:33 41.26720 28.72317 339 ft 7 kts 127°
2026-05-07 23:33 41.26716 28.72387 339 ft 9 kts 84°
2026-05-07 23:34 41.26719 28.72483 339 ft 12 kts 89°
2026-05-07 23:34 41.26720 28.72558 339 ft 13 kts 89°
2026-05-07 23:34 41.26722 28.72689 339 ft 15 kts 89°
2026-05-07 23:34 41.26723 28.72869 339 ft 12 kts 90°
2026-05-07 23:35 41.26723 28.72946 339 ft 11 kts 90°
2026-05-07 23:35 41.26724 28.73057 339 ft 12 kts 89°
2026-05-07 23:35 41.26725 28.73086 339 ft 1 kts 89°
2026-05-07 23:35 41.26725 28.73108 339 ft 4 kts 89°
2026-05-07 23:36 41.26726 28.73154 339 ft 6 kts 89°
2026-05-07 23:36 41.26727 28.73219 339 ft 7 kts 89°
2026-05-07 23:36 41.26728 28.73285 339 ft 4 kts 89°
2026-05-07 23:36 41.26726 28.73309 339 ft 3 kts 112°
2026-05-07 23:37 41.26704 28.73329 339 ft 5 kts 142°
2026-05-07 23:37 41.26694 28.73377 339 ft 7 kts 99°
2026-05-07 23:37 41.26692 28.73397 339 ft 1 kts 92°
2026-05-07 23:37 41.26692 28.73402 339 ft 0 kts 90°
2026-05-07 23:38 41.26692 28.73410 339 ft 2 kts 88°
2026-05-07 23:38 41.26692 28.73432 339 ft 2 kts 88°
2026-05-07 23:38 41.26692 28.73436 339 ft 0 kts 88°